TimeEST,TemperatureF,Dew PointF,Humidity,Sea Level PressureIn,VisibilityMPH,Wind Direction,Wind SpeedMPH,Gust SpeedMPH,PrecipitationIn,Events,Conditions,WindDirDegrees,DateUTC
12:15 AM,24.8,12.2,59,30.49,10.0,Calm,Calm,-,N/A,,Clear,0,2014-01-09 05:15:00
12:35 AM,24.8,12.2,59,30.48,10.0,Calm,Calm,-,N/A,,Clear,0,2014-01-09 05:35:00
12:55 AM,24.8,14.0,64,30.49,10.0,Calm,Calm,-,N/A,,Clear,0,2014-01-09 05:55:00
1:15 AM,24.8,12.2,59,30.49,10.0,Calm,Calm,-,N/A,,Partly Cloudy,0,2014-01-09 06:15:00
1:35 AM,24.8,14.0,64,30.49,10.0,Calm,Calm,-,N/A,,Mostly Cloudy,0,2014-01-09 06:35:00
1:55 AM,26.6,14.0,59,30.50,10.0,Calm,Calm,-,N/A,,Mostly Cloudy,0,2014-01-09 06:55:00
2:15 AM,26.6,14.0,59,30.51,10.0,Calm,Calm,-,N/A,,Overcast,0,2014-01-09 07:15:00
2:35 AM,26.6,14.0,59,30.51,10.0,Calm,Calm,-,N/A,,Overcast,0,2014-01-09 07:35:00
2:55 AM,24.8,14.0,64,30.51,10.0,Calm,Calm,-,N/A,,Mostly Cloudy,0,2014-01-09 07:55:00
3:15 AM,24.8,17.6,74,30.51,10.0,Calm,Calm,-,N/A,,Scattered Clouds,0,2014-01-09 08:15:00
3:35 AM,24.8,17.6,74,30.51,10.0,Calm,Calm,-,N/A,,Clear,0,2014-01-09 08:35:00
3:55 AM,24.8,17.6,74,30.52,10.0,Calm,Calm,-,N/A,,Clear,0,2014-01-09 08:55:00
4:15 AM,24.8,17.6,74,30.52,10.0,Calm,Calm,-,N/A,,Clear,0,2014-01-09 09:15:00
4:35 AM,26.6,17.6,69,30.52,10.0,Calm,Calm,-,N/A,,Clear,0,2014-01-09 09:35:00
4:55 AM,24.8,17.6,74,30.53,10.0,WNW,3.5,-,N/A,,Clear,300,2014-01-09 09:55:00
5:15 AM,24.8,14.0,64,30.54,10.0,NNW,3.5,-,N/A,,Partly Cloudy,330,2014-01-09 10:15:00
5:35 AM,24.8,12.2,59,30.54,10.0,NNW,3.5,-,N/A,,Clear,340,2014-01-09 10:35:00
5:55 AM,24.8,12.2,59,30.55,10.0,North,3.5,-,N/A,,Clear,360,2014-01-09 10:55:00
6:15 AM,24.8,10.4,54,30.55,10.0,Calm,Calm,-,N/A,,Clear,0,2014-01-09 11:15:00
6:35 AM,23.0,10.4,59,30.55,10.0,North,3.5,-,N/A,,Clear,350,2014-01-09 11:35:00
6:55 AM,23.0,10.4,59,30.56,10.0,North,3.5,-,N/A,,Partly Cloudy,350,2014-01-09 11:55:00
7:15 AM,23.0,10.4,59,30.57,10.0,Calm,Calm,-,N/A,,Partly Cloudy,0,2014-01-09 12:15:00
7:35 AM,23.0,12.2,63,30.58,10.0,Calm,Calm,-,N/A,,Partly Cloudy,0,2014-01-09 12:35:00
7:55 AM,23.0,12.2,63,30.59,10.0,Calm,Calm,-,N/A,,Clear,0,2014-01-09 12:55:00
8:15 AM,24.8,14.0,64,30.60,10.0,Calm,Calm,-,N/A,,Mostly Cloudy,0,2014-01-09 13:15:00
8:35 AM,24.8,14.0,64,30.61,10.0,Calm,Calm,-,N/A,,Mostly Cloudy,0,2014-01-09 13:35:00
8:55 AM,26.6,15.8,64,30.63,10.0,Calm,Calm,-,N/A,,Partly Cloudy,0,2014-01-09 13:55:00
9:15 AM,26.6,14.0,59,30.64,10.0,North,3.5,-,N/A,,Clear,10,2014-01-09 14:15:00
9:35 AM,26.6,14.0,59,30.64,10.0,NNE,5.8,-,N/A,,Clear,20,2014-01-09 14:35:00
9:55 AM,28.4,14.0,55,30.65,10.0,NNE,6.9,-,N/A,,Clear,20,2014-01-09 14:55:00
10:15 AM,28.4,14.0,55,30.65,10.0,NNE,4.6,-,N/A,,Clear,30,2014-01-09 15:15:00
10:35 AM,28.4,14.0,55,30.65,10.0,NE,3.5,-,N/A,,Clear,40,2014-01-09 15:35:00
10:55 AM,30.2,14.0,51,30.65,10.0,Calm,Calm,-,N/A,,Clear,0,2014-01-09 15:55:00
11:15 AM,30.2,14.0,51,30.63,10.0,NE,3.5,-,N/A,,Clear,40,2014-01-09 16:15:00
11:35 AM,30.2,14.0,51,30.62,10.0,Calm,Calm,-,N/A,,Clear,0,2014-01-09 16:35:00
11:55 AM,30.2,14.0,51,30.61,10.0,NNE,3.5,-,N/A,,Clear,30,2014-01-09 16:55:00
12:15 PM,32.0,14.0,48,30.59,10.0,East,5.8,-,N/A,,Clear,100,2014-01-09 17:15:00
12:35 PM,32.0,14.0,48,30.59,10.0,North,4.6,-,N/A,,Clear,10,2014-01-09 17:35:00
12:55 PM,32.0,14.0,48,30.58,10.0,East,5.8,-,N/A,,Clear,80,2014-01-09 17:55:00
1:15 PM,32.0,14.0,48,30.58,10.0,Calm,Calm,-,N/A,,Clear,0,2014-01-09 18:15:00
1:35 PM,32.0,14.0,48,30.58,10.0,Calm,Calm,-,N/A,,Clear,0,2014-01-09 18:35:00
1:55 PM,32.0,14.0,48,30.58,10.0,East,4.6,-,N/A,,Clear,90,2014-01-09 18:55:00
2:15 PM,32.0,12.2,44,30.58,10.0,South,3.5,-,N/A,,Clear,170,2014-01-09 19:15:00
2:35 PM,32.0,14.0,48,30.58,10.0,East,5.8,-,N/A,,Clear,100,2014-01-09 19:35:00
2:55 PM,32.0,12.2,44,30.58,10.0,East,4.6,-,N/A,,Clear,80,2014-01-09 19:55:00
3:35 PM,32.0,14.0,48,30.59,10.0,South,3.5,-,N/A,,Mostly Cloudy,180,2014-01-09 20:35:00
3:55 PM,32.0,14.0,48,30.60,10.0,Calm,Calm,-,N/A,,Overcast,0,2014-01-09 20:55:00
4:15 PM,32.0,14.0,48,30.60,10.0,Calm,Calm,-,N/A,,Overcast,0,2014-01-09 21:15:00
4:35 PM,32.0,14.0,48,30.59,10.0,ESE,3.5,-,N/A,,Mostly Cloudy,120,2014-01-09 21:35:00
4:55 PM,32.0,14.0,48,30.59,10.0,Calm,Calm,-,N/A,,Mostly Cloudy,0,2014-01-09 21:55:00
5:15 PM,32.0,14.0,48,30.59,10.0,Calm,Calm,-,N/A,,Scattered Clouds,0,2014-01-09 22:15:00
6:15 PM,30.2,14.0,51,30.60,10.0,Calm,Calm,-,N/A,,Overcast,0,2014-01-09 23:15:00
6:35 PM,30.2,14.0,51,30.59,10.0,SE,3.5,-,N/A,,Scattered Clouds,130,2014-01-09 23:35:00
6:55 PM,30.2,14.0,51,30.59,10.0,SE,3.5,-,N/A,,Clear,130,2014-01-09 23:55:00
7:15 PM,30.2,14.0,51,30.58,10.0,SE,4.6,-,N/A,,Clear,130,2014-01-10 00:15:00
7:35 PM,30.2,14.0,51,30.60,10.0,Calm,Calm,-,N/A,,Clear,0,2014-01-10 00:35:00
7:55 PM,28.4,14.0,55,30.57,10.0,East,5.8,-,N/A,,Clear,80,2014-01-10 00:55:00
8:15 PM,28.4,14.0,55,30.59,10.0,ESE,3.5,-,N/A,,Clear,110,2014-01-10 01:15:00
8:35 PM,28.4,14.0,55,30.58,10.0,SE,3.5,-,N/A,,Clear,130,2014-01-10 01:35:00
8:55 PM,30.2,14.0,51,30.59,10.0,Calm,Calm,-,N/A,,Clear,0,2014-01-10 01:55:00
9:15 PM,30.2,14.0,51,30.59,10.0,SE,3.5,-,N/A,,Clear,140,2014-01-10 02:15:00
9:35 PM,28.4,14.0,55,30.61,10.0,Calm,Calm,-,N/A,,Clear,0,2014-01-10 02:35:00
9:55 PM,28.4,17.6,64,30.60,10.0,Calm,Calm,-,N/A,,Partly Cloudy,0,2014-01-10 02:55:00
10:15 PM,28.4,14.0,55,30.60,10.0,SSE,3.5,-,N/A,,Clear,160,2014-01-10 03:15:00
10:35 PM,28.4,14.0,55,30.59,10.0,SSE,3.5,-,N/A,,Partly Cloudy,160,2014-01-10 03:35:00
10:55 PM,30.2,15.8,55,30.58,10.0,SSE,3.5,-,N/A,,Scattered Clouds,160,2014-01-10 03:55:00
11:15 PM,30.2,17.6,60,30.57,10.0,SSE,3.5,-,N/A,,Scattered Clouds,150,2014-01-10 04:15:00
11:35 PM,28.4,17.6,64,30.56,10.0,SSE,3.5,-,N/A,,Clear,150,2014-01-10 04:35:00
11:55 PM,30.2,19.4,64,30.55,10.0,SE,4.6,-,N/A,,Clear,140,2014-01-10 04:55:00